TimeAKST,TemperatureF,Dew PointF,Humidity,Sea Level PressureIn,VisibilityMPH,Wind Direction,Wind SpeedMPH,Gust SpeedMPH,PrecipitationIn,Events,Conditions,WindDirDegrees,DateUTC
12:53 AM,39.0,33.1,79,29.72,10.0,South,24.2,35.7,N/A,,Overcast,170,2013-01-14 09:53:00
1:53 AM,39.0,33.1,79,29.71,10.0,SSE,21.9,31.1,N/A,,Overcast,160,2013-01-14 10:53:00
3:53 AM,37.9,33.1,83,29.67,10.0,SSE,21.9,33.4,N/A,,Overcast,160,2013-01-14 12:53:00
5:53 AM,37.0,33.1,86,29.61,10.0,South,17.3,31.1,N/A,,Mostly Cloudy,170,2013-01-14 14:53:00
6:02 AM,37.0,33.1,86,29.55,10.0,SSE,17.3,26.5,N/A,,Mostly Cloudy,160,2013-01-14 15:02:00
6:53 AM,37.0,33.1,86,29.58,10.0,South,17.3,25.3,N/A,,Mostly Cloudy,170,2013-01-14 15:53:00
7:53 AM,37.9,33.1,83,29.60,10.0,South,17.3,25.3,N/A,,Scattered Clouds,170,2013-01-14 16:53:00
8:53 AM,39.0,33.1,79,29.54,10.0,SSE,20.7,32.2,N/A,,Mostly Cloudy,160,2013-01-14 17:53:00
9:53 AM,39.0,32.0,76,29.53,10.0,South,25.3,36.8,N/A,,Overcast,170,2013-01-14 18:53:00
10:53 AM,39.0,30.0,70,29.58,10.0,South,24.2,35.7,N/A,,Overcast,170,2013-01-14 19:53:00
11:53 AM,41.0,30.0,65,29.63,10.0,South,24.2,31.1,N/A,,Overcast,170,2013-01-14 20:53:00
12:53 PM,41.0,28.0,60,29.60,10.0,SSE,28.8,39.1,N/A,,Overcast,160,2013-01-14 21:53:00
1:53 PM,39.9,28.0,63,29.64,10.0,South,25.3,41.4,N/A,,Overcast,170,2013-01-14 22:53:00
2:53 PM,41.0,27.0,57,29.67,10.0,SSE,23.0,31.1,N/A,,Overcast,160,2013-01-14 23:53:00
3:53 PM,39.9,27.0,60,29.66,10.0,SSE,25.3,32.2,N/A,,Overcast,160,2013-01-15 00:53:00
4:53 PM,39.9,26.1,58,29.69,10.0,South,21.9,32.2,N/A,,Mostly Cloudy,170,2013-01-15 01:53:00
5:53 PM,39.9,26.1,58,29.70,10.0,SSE,23.0,31.1,N/A,,Mostly Cloudy,160,2013-01-15 02:53:00
6:53 PM,39.0,26.1,60,29.75,10.0,SSE,19.6,28.8,N/A,,Overcast,160,2013-01-15 03:53:00
7:53 PM,37.9,26.1,62,29.76,10.0,South,17.3,25.3,N/A,,Overcast,170,2013-01-15 04:53:00
8:53 PM,37.9,26.1,62,29.76,10.0,South,16.1,-,N/A,,Overcast,170,2013-01-15 05:53:00
9:26 PM,37.9,27.0,65,29.72,10.0,South,15.0,-,N/A,,Overcast,180,2013-01-15 06:26:00
9:53 PM,37.9,27.0,65,29.78,10.0,South,13.8,23.0,N/A,,Clear,180,2013-01-15 06:53:00
10:53 PM,37.0,27.0,67,29.81,10.0,South,12.7,-,N/A,,Mostly Cloudy,180,2013-01-15 07:53:00
11:53 PM,37.0,28.0,70,29.83,10.0,South,12.7,-,N/A,,Overcast,180,2013-01-15 08:53:00